Worthington, MN

11:19 PM CST on December 07, 2019 (GMT -0600)
Worthington Municipal

Weather History for KOTG - October, 2019

Change the Weather History Date:

Friday, October 11, 2019

  Actual Average Record
Temperature  
Mean Temperature 32 °F -  
Max Temperature 34 °F 59 °F 86 °F (2015)
Min Temperature 28 °F 39 °F 16 °F (1987)
Degree Days  
Heating Degree Days 33    
Moisture  
Dew Point 27 °F    
Average Humidity 81    
Maximum Humidity 93    
Minimum Humidity 66    
Precipitation  
Precipitation 0.00 in - - ()
Sea Level Pressure  
Sea Level Pressure 29.93 in    
Wind  
Wind Speed 20 mph (West)    
Max Wind Speed 30 mph    
Max Gust Speed 41 mph    
Visibility 9 miles    
Events Rain , Snow    
Averages and records for this station are not official NWS values.
T = Trace of Precipitation, MM = Missing Value Source: NWS Daily Summary

Daily Weather History Graph

Daily Weather History Graph

Search for Another Location

Airport or City:

Astronomy

Oct. 11, 2019 Rise Set
Actual Time 7:31 AM CDT 6:45 PM CDT
Civil Twilight 7:02 AM CDT 7:14 PM CDT
Nautical Twilight 6:29 AM CDT 7:47 PM CDT
Astronomical Twilight 5:56 AM CDT 8:21 PM CDT
Moon 6:21 PM CDT (10/11) 5:06 AM CDT (10/11)
Length of Visible Light 12h 12m
Length of Day
11h 14m
Waxing Gibbous, 96% of the Moon is Illuminated
Oct 11
Waxing Gibbous
Oct 13
Full
Oct 21
Last Quarter
Oct 27
New
Nov 4
First Quarter

Hourly Weather History & Observations

Time (CDT) Temp. Windchill Dew Point Humidity Pressure Visibility Wind Dir Wind Speed Gust Speed Precip Events Conditions
12:52 AM 33.8 °F 23.2 °F 30.2 °F 87% 29.86 in 10.0 mi West 17.3 mph 23.0 mph N/A   Overcast
12:56 AM 34.0 °F 23.8 °F 30.9 °F 89% 29.88 in 10.0 mi WNW 16.1 mph 23.0 mph N/A   Overcast
1:56 AM 33.1 °F 21.5 °F 30.0 °F 89% 29.91 in 10.0 mi WNW 19.6 mph 27.6 mph 0.00 in   Overcast
2:56 AM 33.1 °F 20.9 °F 28.9 °F 85% 29.89 in 10.0 mi West 21.9 mph 26.5 mph N/A   Overcast
3:56 AM 32.0 °F 20.5 °F 30.0 °F 92% 29.93 in 4.0 mi West 18.4 mph 26.5 mph 0.00 in Snow Light Snow
4:13 AM 32.0 °F 20.8 °F 30.2 °F 93% 29.87 in 8.0 mi West 17.3 mph - 0.00 in   Overcast
4:56 AM 32.0 °F 20.5 °F 28.9 °F 88% 29.93 in 10.0 mi West 18.4 mph 26.5 mph 0.00 in   Overcast
5:06 AM 32.0 °F 20.5 °F 28.4 °F 87% 29.88 in 10.0 mi West 18.4 mph 28.8 mph N/A   Overcast
5:56 AM 32.0 °F 20.8 °F 28.0 °F 85% 29.95 in 10.0 mi West 17.3 mph 25.3 mph N/A   Overcast
6:08 AM 30.2 °F 18.5 °F 28.4 °F 93% 29.90 in 10.0 mi West 17.3 mph 23.0 mph 0.00 in Snow Light Snow
6:36 AM 30.2 °F 16.5 °F 28.4 °F 93% 29.90 in 10.0 mi West 24.2 mph 28.8 mph 0.00 in   Overcast
6:56 AM 30.9 °F 20.2 °F 28.0 °F 89% 29.96 in 10.0 mi West 15.0 mph 26.5 mph 0.00 in   Overcast
7:56 AM 30.9 °F 19.4 °F 26.1 °F 82% 29.96 in 10.0 mi West 17.3 mph 27.6 mph N/A   Overcast
8:56 AM 30.9 °F 18.4 °F 27.0 °F 85% 29.95 in 10.0 mi West 20.7 mph 25.3 mph N/A   Overcast
9:56 AM 32.0 °F 19.8 °F 27.0 °F 82% 29.96 in 10.0 mi West 20.7 mph 29.9 mph 0.00 in   Overcast
10:56 AM 32.0 °F 21.2 °F 26.1 °F 79% 29.96 in 10.0 mi West 16.1 mph 28.8 mph N/A   Overcast
11:56 AM 33.1 °F 20.6 °F 25.0 °F 72% 29.96 in 10.0 mi West 23.0 mph 34.5 mph 0.00 in Rain Light Rain
12:56 PM 33.1 °F 20.6 °F 26.1 °F 75% 29.96 in 10.0 mi West 23.0 mph 33.4 mph 0.00 in Rain Light Rain
1:56 PM 34.0 °F 21.3 °F 25.0 °F 70% 29.95 in 9.0 mi West 25.3 mph 38.0 mph 0.00 in Snow Light Snow
2:56 PM 34.0 °F 21.3 °F 26.1 °F 73% 29.94 in 9.0 mi West 25.3 mph 33.4 mph 0.00 in Snow Light Snow
3:34 PM 33.8 °F 21.3 °F 26.6 °F 75% 29.89 in 9.0 mi West 24.2 mph 34.5 mph 0.00 in Snow Light Snow
3:44 PM 33.8 °F 20.1 °F 26.6 °F 75% 29.89 in 8.0 mi West 29.9 mph 41.4 mph 0.00 in Snow Light Snow
3:56 PM 34.0 °F 22.1 °F 27.0 °F 75% 29.96 in 8.0 mi West 21.9 mph 31.1 mph 0.00 in Snow Light Snow
4:56 PM 33.1 °F 20.1 °F 26.1 °F 75% 29.96 in 9.0 mi West 25.3 mph 33.4 mph 0.00 in Snow Light Snow
5:24 PM 33.8 °F 20.3 °F 24.8 °F 70% 29.91 in 9.0 mi West 28.8 mph 35.7 mph 0.00 in Snow Light Snow
5:34 PM 32.0 °F 19.5 °F 24.8 °F 75% 29.91 in 9.0 mi West 21.9 mph 39.1 mph 0.00 in Snow Light Snow
5:56 PM 32.0 °F 18.4 °F 25.0 °F 75% 29.97 in 8.0 mi West 26.5 mph 39.1 mph 0.00 in Snow Light Snow
6:56 PM 30.9 °F 18.7 °F 27.0 °F 85% 29.99 in 6.0 mi West 19.6 mph 35.7 mph 0.00 in Snow Light Snow
7:16 PM 32.0 °F 19.5 °F 26.6 °F 80% 29.92 in 8.0 mi West 21.9 mph 31.1 mph 0.00 in Snow Light Snow
7:56 PM 32.0 °F 20.5 °F 25.0 °F 75% 29.98 in 10.0 mi West 18.4 mph 26.5 mph 0.00 in   Overcast
8:56 PM 33.1 °F 20.3 °F 23.0 °F 66% 29.96 in 10.0 mi West 24.2 mph 33.4 mph N/A   Overcast
9:56 PM 32.0 °F 20.1 °F 23.0 °F 69% 29.96 in 10.0 mi West 19.6 mph 29.9 mph N/A   Clear
10:56 PM 30.0 °F 18.3 °F 24.1 °F 79% 29.96 in 10.0 mi WSW 17.3 mph 24.2 mph N/A   Clear
11:56 PM 28.9 °F 16.9 °F 23.0 °F 78% 29.93 in 10.0 mi WSW 17.3 mph 26.5 mph N/A   Clear